Location: Chuathbaluk
(61.5726°N, 159.2454°W)
Time: 02:51:31
(UTC+00:00)

TIGRISAT - Pass Details

Date: 17 January 2021
Orbit: 605 x 688 km, 97.7° (Epoch: 05 March)

Event Time Altitude Azimuth Distance (km) Brightness Sun altitude
Rises 16:15:35 0° 139° (SE) 2,864 ? -21.8°
Reaches altitude 10° 16:17:48 10° 133° (SE) 1,968 ? -21.5°
Maximum altitude 16:21:52 44° 62° (ENE) 862 ? -21.0°
Drops below altitude 10° 16:26:00 10° 351° (N) 2,011 ? -20.5°
Enters shadow 16:26:12 - 350° (N) 2,091 ? -20.5°
